�������l�o���
Date,Time,MP-1(��Sv/h),MP-2(��Sv/h),MP-3(��Sv/h),MP-4(��Sv/h),MP-5(��Sv/h),MP-6(��Sv/h),MP-7(��Sv/h),MP-8(��Sv/h),����,����(m/s),���J
2016/11/13,00:00,1.088,1.864,1.252,2.094,1.450,0.575,1.050,0.971,�쐼,4.0,��
2016/11/13,00:10,1.089,1.866,1.252,2.093,1.449,0.574,1.050,0.971,�쐼,3.7,��
2016/11/13,00:20,1.089,1.865,1.251,2.097,1.451,0.573,1.050,0.969,�쐼,3.7,��
2016/11/13,00:30,1.087,1.864,1.254,2.094,1.450,0.574,1.048,0.972,��쐼,3.6,��
2016/11/13,00:40,1.089,1.864,1.253,2.095,1.453,0.573,1.050,0.970,��쐼,2.9,��
2016/11/13,00:50,1.087,1.863,1.252,2.096,1.454,0.575,1.050,0.970,��쐼,2.5,��
2016/11/13,01:00,1.089,1.866,1.253,2.096,1.453,0.574,1.049,0.969,���쐼,2.6,��
2016/11/13,01:10,1.089,1.865,1.253,2.093,1.453,0.574,1.050,0.970,���쐼,2.0,��
2016/11/13,01:20,1.089,1.863,1.253,2.095,1.454,0.575,1.049,0.969,���쐼,2.2,��
2016/11/13,01:30,1.086,1.865,1.254,2.095,1.452,0.575,1.049,0.970,���쐼,2.2,��
2016/11/13,01:40,1.086,1.865,1.251,2.091,1.451,0.573,1.048,0.969,��,2.0,��
2016/11/13,01:50,1.088,1.866,1.251,2.097,1.453,0.574,1.049,0.970,�쐼,2.5,��
2016/11/13,02:00,1.089,1.865,1.251,2.097,1.453,0.575,1.051,0.971,��쐼,2.0,��
2016/11/13,02:10,1.090,1.863,1.250,2.094,1.452,0.574,1.050,0.969,��,2.6,��
2016/11/13,02:20,1.088,1.863,1.252,2.093,1.453,0.573,1.050,0.970,��,3.5,��
2016/11/13,02:30,1.088,1.865,1.250,2.093,1.450,0.575,1.051,0.971,��쐼,2.6,��
2016/11/13,02:40,1.088,1.862,1.250,2.093,1.450,0.574,1.051,0.969,��쐼,3.0,��
2016/11/13,02:50,1.088,1.864,1.252,2.096,1.455,0.575,1.049,0.970,��쐼,2.6,��
2016/11/13,03:00,1.089,1.864,1.252,2.095,1.454,0.573,1.049,0.970,��쐼,2.0,��
2016/11/13,03:10,1.089,1.864,1.250,2.094,1.451,0.575,1.049,0.970,��,2.0,��
2016/11/13,03:20,1.089,1.864,1.252,2.092,1.452,0.574,1.051,0.971,�쐼,1.2,��
2016/11/13,03:30,1.089,1.863,1.249,2.095,1.452,0.575,1.049,0.971,��,0.8,��
2016/11/13,03:40,1.088,1.864,1.249,2.093,1.453,0.574,1.050,0.970,��쐼,1.7,��
2016/11/13,03:50,1.088,1.863,1.250,2.095,1.452,0.574,1.047,0.971,��쐼,2.0,��
2016/11/13,04:00,1.087,1.863,1.251,2.090,1.452,0.573,1.047,0.970,��쐼,2.6,��
2016/11/13,04:10,1.087,1.862,1.250,2.096,1.450,0.575,1.047,0.971,��쐼,2.3,��
2016/11/13,04:20,1.089,1.863,1.250,2.092,1.453,0.574,1.049,0.969,��,3.1,��
2016/11/13,04:30,1.090,1.866,1.250,2.094,1.453,0.576,1.049,0.970,��,4.4,��
2016/11/13,04:40,1.087,1.865,1.252,2.092,1.450,0.574,1.050,0.970,��,6.7,��
2016/11/13,04:50,1.087,1.863,1.249,2.092,1.452,0.574,1.050,0.970,��,7.9,��
2016/11/13,05:00,1.090,1.867,1.248,2.092,1.452,0.575,1.049,0.968,��,6.2,��
2016/11/13,05:10,1.089,1.865,1.252,2.095,1.452,0.575,1.047,0.971,��,7.0,��
2016/11/13,05:20,1.087,1.865,1.250,2.096,1.451,0.574,1.048,0.970,��,5.1,��
2016/11/13,05:30,1.086,1.867,1.249,2.094,1.452,0.574,1.049,0.971,��,6.0,��
2016/11/13,05:40,1.089,1.864,1.253,2.094,1.451,0.574,1.050,0.971,��,6.3,��
2016/11/13,05:50,1.086,1.863,1.252,2.093,1.453,0.574,1.048,0.970,��,6.0,��
2016/11/13,06:00,1.088,1.862,1.250,2.096,1.452,0.575,1.050,0.970,��,6.4,��
2016/11/13,06:10,1.090,1.865,1.249,2.096,1.453,0.575,1.049,0.971,��,7.9,��
2016/11/13,06:20,1.089,1.865,1.251,2.093,1.451,0.576,1.049,0.970,��,7.4,��
2016/11/13,06:30,1.091,1.865,1.252,2.097,1.454,0.574,1.051,0.970,��,9.0,��
2016/11/13,06:40,1.089,1.869,1.252,2.094,1.452,0.575,1.051,0.971,��,9.6,��
2016/11/13,06:50,1.089,1.869,1.251,2.096,1.453,0.576,1.050,0.973,��,9.8,��
2016/11/13,07:00,1.090,1.864,1.252,2.094,1.452,0.575,1.050,0.971,��,8.4,��
2016/11/13,07:10,1.093,1.864,1.254,2.096,1.452,0.576,1.052,0.971,��,7.5,��
2016/11/13,07:20,1.091,1.866,1.253,2.098,1.453,0.576,1.052,0.971,��,7.2,��
2016/11/13,07:30,1.090,1.867,1.252,2.096,1.453,0.574,1.053,0.971,��,6.2,��
2016/11/13,07:40,1.092,1.868,1.251,2.094,1.450,0.575,1.052,0.973,��,5.3,��
2016/11/13,07:50,1.091,1.865,1.253,2.100,1.451,0.575,1.052,0.970,��,5.2,��
2016/11/13,08:00,1.089,1.865,1.253,2.097,1.454,0.577,1.052,0.971,��쐼,2.9,��
2016/11/13,08:10,1.093,1.868,1.253,2.096,1.453,0.576,1.051,0.973,��쐼,2.5,��
2016/11/13,08:20,1.089,1.867,1.253,2.101,1.454,0.576,1.052,0.970,��,2.3,��
2016/11/13,08:30,1.092,1.867,1.255,2.099,1.455,0.576,1.053,0.971,��,2.6,��
2016/11/13,08:40,1.093,1.869,1.257,2.099,1.458,0.576,1.053,0.971,��,1.9,��
2016/11/13,08:50,1.093,1.869,1.256,2.101,1.458,0.578,1.054,0.973,��,1.7,��
2016/11/13,09:00,1.094,1.870,1.256,2.100,1.457,0.577,1.053,0.974,��쓌,1.2,��
2016/11/13,09:10,1.093,1.872,1.258,2.103,1.459,0.577,1.050,0.972,��,1.7,��
2016/11/13,09:20,1.094,1.872,1.256,2.101,1.459,0.578,1.054,0.974,��,1.7,��
2016/11/13,09:30,1.096,1.872,1.260,2.101,1.457,0.579,1.053,0.973,��쓌,2.6,��
2016/11/13,09:40,1.095,1.875,1.258,2.101,1.455,0.579,1.053,0.975,��,2.5,��
2016/11/13,09:50,1.096,1.873,1.258,2.103,1.457,0.579,1.052,0.973,��쓌,2.6,��
2016/11/13,10:00,1.095,1.874,1.257,2.104,1.460,0.579,1.052,0.975,��쓌,2.6,��
2016/11/13,10:10,1.093,1.868,1.260,2.104,1.458,0.579,1.054,0.974,��쓌,2.5,��
2016/11/13,10:20,1.097,1.871,1.256,2.104,1.461,0.578,1.054,0.973,��쓌,2.8,��
2016/11/13,10:30,1.096,1.873,1.257,2.108,1.460,0.577,1.054,0.974,��쓌,3.8,��
2016/11/13,10:40,1.097,1.872,1.258,2.106,1.459,0.575,1.053,0.974,��쓌,5.8,��
2016/11/13,10:50,1.095,1.873,1.258,2.106,1.461,0.578,1.055,0.975,��쓌,5.7,��
2016/11/13,11:00,1.096,1.872,1.258,2.105,1.461,0.576,1.056,0.974,��쓌,6.4,��
2016/11/13,11:10,1.098,1.873,1.259,2.104,1.460,0.578,1.055,0.975,��,4.9,��
2016/11/13,11:20,1.099,1.875,1.260,2.107,1.462,0.576,1.055,0.976,��쓌,5.6,��
2016/11/13,11:30,1.099,1.876,1.262,2.109,1.463,0.576,1.055,0.974,��,6.1,��
2016/11/13,11:40,1.099,1.878,1.258,2.107,1.464,0.576,1.055,0.974,��쓌,5.6,��
2016/11/13,11:50,1.099,1.878,1.262,2.104,1.466,0.578,1.055,0.976,��쓌,5.9,��
2016/11/13,12:00,1.100,1.878,1.262,2.107,1.465,0.577,1.054,0.976,��,4.7,��
2016/11/13,12:10,1.099,1.874,1.263,2.106,1.466,0.579,1.057,0.976,��,1.9,��
2016/11/13,12:20,1.100,1.877,1.261,2.107,1.468,0.579,1.055,0.975,��쓌,2.6,��
2016/11/13,12:30,1.102,1.880,1.264,2.106,1.468,0.580,1.054,0.972,��쓌,4.2,��
2016/11/13,12:40,1.100,1.874,1.262,2.108,1.467,0.581,1.056,0.972,��쓌,6.1,��
2016/11/13,12:50,1.100,1.878,1.263,2.109,1.466,0.582,1.055,0.971,��쓌,6.1,��
2016/11/13,13:00,1.101,1.879,1.263,2.109,1.468,0.581,1.056,0.972,��쓌,5.6,��
2016/11/13,13:10,1.100,1.879,1.263,2.108,1.472,0.581,1.055,0.971,��쐼,3.3,��
2016/11/13,13:20,1.102,1.882,1.264,2.108,1.467,0.581,1.056,0.974,��,2.3,��
2016/11/13,13:30,1.100,1.881,1.266,2.110,1.469,0.580,1.056,0.973,��쐼,3.2,��
2016/11/13,13:40,1.100,1.879,1.264,2.110,1.466,0.581,1.055,0.974,���k��,2.8,��
2016/11/13,13:50,1.105,1.881,1.266,2.108,1.471,0.582,1.054,0.971,���k��,2.9,��
2016/11/13,14:00,1.101,1.882,1.267,2.111,1.473,0.581,1.056,0.974,��,3.0,��
2016/11/13,14:10,1.101,1.880,1.267,2.109,1.471,0.581,1.057,0.973,��쐼,2.0,��
2016/11/13,14:20,1.100,1.882,1.270,2.114,1.472,0.581,1.056,0.973,��,1.5,��
2016/11/13,14:30,1.100,1.882,1.264,2.114,1.471,0.581,1.056,0.974,��,1.4,��
2016/11/13,14:40,1.101,1.879,1.267,2.109,1.469,0.581,1.056,0.973,��쓌,0.6,��
2016/11/13,14:50,1.101,1.878,1.264,2.112,1.470,0.580,1.059,0.972,-,CALM,��
2016/11/13,15:00,1.104,1.881,1.270,2.110,1.469,0.581,1.057,0.972,-,CALM,��
2016/11/13,15:10,1.105,1.884,1.265,2.111,1.470,0.581,1.059,0.973,���k��,3.5,��
2016/11/13,15:20,1.107,1.878,1.267,2.110,1.473,0.581,1.057,0.972,��,2.9,��
2016/11/13,15:30,1.105,1.880,1.265,2.112,1.472,0.581,1.058,0.973,���쐼,5.6,��
2016/11/13,15:40,1.106,1.884,1.266,2.113,1.473,0.582,1.057,0.975,���쐼,4.6,��
2016/11/13,15:50,1.108,1.884,1.267,2.112,1.470,0.581,1.058,0.975,�쐼,4.3,��
2016/11/13,16:00,1.106,1.884,1.267,2.114,1.470,0.581,1.060,0.975,�쐼,4.3,��
2016/11/13,16:10,1.104,1.884,1.267,2.110,1.471,0.582,1.059,0.976,���쐼,4.6,��
2016/11/13,16:20,1.104,1.884,1.268,2.111,1.469,0.583,1.058,0.977,���쐼,4.0,��
2016/11/13,16:30,1.105,1.884,1.265,2.107,1.470,0.583,1.059,0.977,���쐼,4.1,��
2016/11/13,16:40,1.105,1.886,1.266,2.107,1.468,0.583,1.060,0.975,��,3.9,��
2016/11/13,16:50,1.103,1.884,1.267,2.106,1.469,0.581,1.056,0.975,��,4.2,��
2016/11/13,17:00,1.101,1.886,1.268,2.109,1.470,0.583,1.058,0.977,���k��,3.5,��
2016/11/13,17:10,1.102,1.881,1.268,2.110,1.472,0.582,1.057,0.977,�k��,3.7,��
2016/11/13,17:20,1.103,1.885,1.265,2.108,1.471,0.581,1.056,0.975,�k��,4.2,��
2016/11/13,17:30,1.102,1.884,1.267,2.110,1.471,0.582,1.056,0.975,�k�k��,2.9,��
2016/11/13,17:40,1.102,1.884,1.265,2.108,1.473,0.580,1.057,0.975,�k��,3.9,��
2016/11/13,17:50,1.101,1.882,1.266,2.111,1.470,0.579,1.057,0.977,�k��,5.5,��
2016/11/13,18:00,1.103,1.883,1.269,2.112,1.471,0.581,1.057,0.975,�k��,5.5,��
2016/11/13,18:10,1.102,1.882,1.267,2.113,1.468,0.579,1.055,0.974,���k��,7.2,��
2016/11/13,18:20,1.101,1.882,1.269,2.108,1.472,0.582,1.056,0.977,���k��,6.2,��
2016/11/13,18:30,1.101,1.888,1.267,2.111,1.472,0.579,1.055,0.973,�k��,4.1,��
2016/11/13,18:40,1.100,1.884,1.268,2.110,1.470,0.581,1.056,0.974,�k��,5.0,��
2016/11/13,18:50,1.100,1.882,1.268,2.112,1.468,0.580,1.055,0.975,�k��,4.9,��
2016/11/13,19:00,1.101,1.886,1.268,2.111,1.471,0.579,1.058,0.975,�k��,5.1,��
2016/11/13,19:10,1.100,1.883,1.267,2.109,1.470,0.581,1.056,0.974,�k��,4.4,��
2016/11/13,19:20,1.101,1.884,1.266,2.108,1.469,0.579,1.058,0.973,�k��,3.9,��
2016/11/13,19:30,1.102,1.880,1.264,2.109,1.470,0.578,1.053,0.975,�k��,3.9,��
2016/11/13,19:40,1.103,1.882,1.267,2.111,1.470,0.579,1.055,0.975,���k��,2.0,��
2016/11/13,19:50,1.101,1.885,1.264,2.106,1.469,0.579,1.058,0.975,�k��,1.2,��
2016/11/13,20:00,1.097,1.881,1.266,2.108,1.471,0.580,1.055,0.973,���k��,0.9,��
2016/11/13,20:10,1.100,1.884,1.266,2.109,1.468,0.579,1.056,0.975,-,CALM,��
2016/11/13,20:20,1.103,1.882,1.265,2.109,1.468,0.578,1.054,0.974,-,CALM,��
2016/11/13,20:30,1.099,1.883,1.266,2.107,1.472,0.576,1.054,0.974,-,CALM,��
2016/11/13,20:40,1.102,1.881,1.264,2.113,1.468,0.580,1.055,0.974,��쐼,1.2,��
2016/11/13,20:50,1.100,1.882,1.263,2.107,1.469,0.579,1.055,0.971,��쐼,3.0,��
2016/11/13,21:00,1.100,1.880,1.265,2.112,1.469,0.578,1.056,0.972,�쐼,3.7,��
2016/11/13,21:10,1.099,1.882,1.266,2.110,1.469,0.579,1.054,0.973,�쐼,3.3,��
2016/11/13,21:20,1.099,1.884,1.265,2.109,1.469,0.579,1.054,0.974,�쐼,3.0,��
2016/11/13,21:30,1.098,1.881,1.265,2.108,1.470,0.578,1.054,0.975,���쐼,3.0,��
2016/11/13,21:40,1.099,1.883,1.264,2.107,1.469,0.579,1.055,0.973,��,2.0,��
2016/11/13,21:50,1.099,1.882,1.266,2.108,1.473,0.580,1.056,0.973,���k��,2.2,��
2016/11/13,22:00,1.098,1.880,1.263,2.111,1.470,0.577,1.055,0.973,���k��,3.0,��
2016/11/13,22:10,1.099,1.884,1.265,2.109,1.472,0.577,1.054,0.972,���k��,2.3,��
2016/11/13,22:20,1.099,1.881,1.264,2.108,1.469,0.579,1.054,0.973,���k��,2.2,��
2016/11/13,22:30,1.100,1.883,1.268,2.109,1.467,0.578,1.054,0.975,��,2.6,��
2016/11/13,22:40,1.100,1.884,1.267,2.107,1.469,0.581,1.055,0.974,��,1.9,��
2016/11/13,22:50,1.101,1.883,1.264,2.109,1.471,0.579,1.054,0.974,���쐼,2.6,��
2016/11/13,23:00,1.099,1.885,1.265,2.111,1.468,0.579,1.054,0.974,��,2.6,��
2016/11/13,23:10,1.102,1.883,1.265,2.109,1.470,0.579,1.053,0.974,��,2.9,��
2016/11/13,23:20,1.099,1.882,1.264,2.111,1.469,0.577,1.053,0.973,���k��,2.6,��
2016/11/13,23:30,1.100,1.881,1.265,2.111,1.470,0.578,1.054,0.974,�k��,4.2,��
2016/11/13,23:40,1.099,1.884,1.266,2.112,1.470,0.579,1.057,0.974,���k��,5.6,��
2016/11/13,23:50,1.099,1.886,1.265,2.110,1.467,0.580,1.055,0.973,�k��,5.2,��
